www.pogodaiklimat.ru

Погода и климат >> Архив погоды >> Молдова >> Фалешты


ПОГОДА в Фалештах

  • Прогноз погоды в Фалештах
  • Монитор погоды в Фалештах

АРХИВ ПОГОДЫ в Фалештах

Время (UTC), дата Ветер
(напр.,м/с)
 
Видим.   Явления Облачность Т
(С)
Тd
(С)
f
(%)
Тe
(С)
Тes
(С)
Комфортность P
(гПа)
Po
(гПа)
Тmin
(С)
Tmax
(С)
R
(мм)
R24
(мм)
S
(см)
09 17.06 З 2 20 км 3/3 1000 м
[Cu med, cong]
+30.2 +22.3 63 +39 +52 опасность
солнечного
удара
1015.3 997.0
12 17.06 С 3 20 км 8/8 600 м
[Cb calv]
+30.9 +21.1 56 +38 +41 очень
душно
1014.4 996.2
15 17.06 В 1
{12}
20 км в посл. час гроза {ливн. осадки} 9/8 600 м
[Cb calv Ac cuf]
+26.0 +19.7 68 +32 +32 очень
душно
1014.8 996.2
18 17.06 С 4
{12}
20 км гроза без осадков {ливн. осадки} 10/10 600 м
[Cb cap]
+21.6 +15.9 70 +25 +25 комфорт 1017.6 998.7 +32.6 0.0
21 17.06 ЮЗ 3 10 км слаб. ливневой дождь {гроза} 10/10 600 м
[Cb cap]
+20.2 +18.4 89 +24 +24 комфорт 1017.3 998.3
00 18.06 СВ 2 10 км {гроза, ливн. осадки} 9/9 600 м
[Cb calv]
+20.2 +19.1 93 +24 +24 комфорт 1017.4 998.4
03 18.06 С 1 20 км 3/0
[Ac trans]
+19.4 +18.3 93 +23 +23 комфорт 1016.9 997.9
06 18.06 С 2 20 км 6/3 1000 м
[Cu hum Ac trans Ci fib]
+23.4 +20.2 82 +31 +35 очень
душно
1017.5 998.7 +19.1 0.3
09 18.06 С 2 20 км 8/8 600 м
[Cu med, cong]
+26.4 +20.8 71 +33 +36 очень
душно
1017.5 998.9
12 18.06 С 3 20 км 8/8 600 м
[Cb calv]
+27.6 +20.0 63 +34 +36 очень
душно
1016.2 997.7
15 18.06 СВ 2 20 км 9/9 600 м
[Cb calv]
+28.2 +19.6 60 +34 +35 очень
душно
1015.4 997.0
18 18.06 С 2 10 км в посл. час гроза {ливн. осадки} 10/10 600 м
[Cb cap]
+20.4 +18.8 91 +25 +25 комфорт 1016.5 997.6 +30.1 17
21 18.06 С 2 10 км 9/6 600 м
[Cb calv Ac cuf]
+20.0 +18.2 89 +24 +24 комфорт 1017.3 998.3
00 19.06 СЗ 2 10 км 4/0
[Ac trans Ci fib]
+18.7 +17.9 95 +20 +20 1016.7 997.6
03 19.06 З 2 10 км 8/0
[Ac trans]
+19.1 +18.8 98 +22 +22 комфорт 1016.7 997.7
06 19.06 С 2 20 км 8/0
[Ac trans Cs]
+23.2 +20.3 84 +30 +35 очень
душно
1016.3 997.6 +18.3
09 19.06 СВ 2 20 км 8/5 1000 м
[Cu hum Ac trans Cs]
+27.1 +20.4 67 +34 +40 очень
душно
1015.8 997.3
12 19.06 ЮВ 1 20 км 6/4 1000 м
[Cu hum Ac trans]
+28.6 +20.0 60 +35 +44 очень
душно
1014.5 996.1
15 19.06 В 1 20 км 3/0
[Ac lent]
+28.8 +18.4 53 +34 +38 очень
душно
1013.1 994.7
18 19.06 В 1 20 км 5/0
[Ci]
+27.1 +20.2 66 +33 +33 очень
душно
1012.9 994.5 +29.0
21 19.06 В 1 10 км ясно +23.5 +20.1 81 +29 +29 душно 1014.0 995.3
00 20.06 ЮВ 1 10 км 3/0
[Ci fib]
+21.9 +19.2 85 +27 +27 душно 1013.9 995.1
03 20.06 В 2 20 км ясно +20.9 +18.5 86 +26 +26 душно 1013.3 994.4
06 20.06 В 2 20 км 3/0
[Ci]
+25.0 +19.4 71 +30 +37 душно 1013.6 995.0 +20.7
09 20.06 В 2 20 км 8/0
[Ci]
+28.5 +19.0 56 +34 +48 очень
душно
1013.3 994.9
12 20.06 ЮВ 1 20 км 6/1 1000 м
[Cu hum Ci sp]
+30.1 +19.4 53 +36 +51 опасность
солнечного
удара
1012.3 994.0
15 20.06 В 1 20 км 9/1 1000 м
[Cu hum Ci fib]
+30.2 +19.4 52 +36 +40 очень
душно
1011.6 993.4
18 20.06 СВ 2 20 км 9/0
[Ac lent Ci]
+27.0 +20.3 67 +33 +33 очень
душно
1012.3 993.9 +30.5
21 20.06 С 2 10 км 5/0
[Ac trans Ci fib]
+24.4 +19.1 72 +29 +29 душно 1012.7 994.1
00 21.06 СЗ 1 10 км 3/0
[Ac cast Cc]
+21.9 +19.9 88 +28 +28 душно 1013.1 994.3
03 21.06 СВ 1 20 км 5/0
[Cc]
+21.2 +19.2 88 +26 +26 душно 1013.5 994.7
06 21.06 В 1 20 км 6/0
[Ac trans Cc]
+25.6 +19.4 69 +31 +38 очень
душно
1013.9 995.3 +21.1
09 21.06 ЮЗ 2 20 км 8/0
[Ac trans Ci fib]
+28.2 +18.9 57 +33 +45 очень
душно
1014.2 995.8
12 21.06 ЮЗ 2 20 км 9/5 1000 м
[Cb calv Ac trans Ci fib]
+30.6 +21.6 59 +39 +44 очень
душно
1013.4 995.2
15 21.06 Ю 1 20 км {ливн. осадки} 8/3 600 м
[Cb calv Ac trans Ci fib]
+28.1 +20.7 64 +35 +38 очень
душно
1013.4 995.0
18 21.06 З 1 20 км {ливн. осадки} 9/4 600 м
[Cb calv Ac trans]
+25.1 +20.7 77 +31 +31 очень
душно
1013.8 995.2 +31.6 0.8
21 21.06 Ю 1 10 км 9/0
[Ac trans Cs]
+22.4 +20.2 87 +29 +29 очень
душно
1014.8 996.0
00 22.06 ЮВ 1 10 км 8/0
[Ac trans Ci fib]
+21.1 +19.2 89 +26 +26 душно 1015.0 996.1
03 22.06 З 1 20 км 3/0
[Ac trans]
+19.6 +18.8 95 +23 +24 комфорт 1015.5 996.5
06 22.06 З 1 20 км 8/0
[Cc]
+24.4 +20.8 80 +30 +38 очень
душно
1016.2 997.5 +19.2
09 22.06 З 2 20 км 6/0
[Ac trans Cc]
+28.5 +23.1 73 +38 +52 опасность
солнечного
удара
1016.4 998.0
12 22.06 СЗ 2 20 км 4/0
[Ac trans Cc]
+30.5 +22.1 61 +39 +52 опасность
солнечного
удара
1015.5 997.2
15 22.06 З 3 20 км 8/0
[Ac trans Cc]
+30.9 +23.1 63 +41 +44 опасность
перегрева
1014.7 996.5
18 22.06 С 3 20 км в посл. час гроза 9/6 600 м
[Cb calv Ac trans Ci]
+23.6 +17.8 70 +28 +28 душно 1016.1 997.4 +31.6
21 22.06 З 2 10 км 3/0
[Ac trans]
+20.5 +17.9 85 +25 +25 комфорт 1016.3 997.4
00 23.06 С 2 10 км 8/0
[Ac trans]
+19.7 +18.1 90 +23 +23 комфорт 1016.4 997.4
03 23.06 С 2 20 км 9/0
[Ac trans Cc]
+19.6 +16.8 84 +22 +23 комфорт 1016.6 997.6
06 23.06 штиль 0 20 км 3/0
[Ac lent Cc]
+23.2 +19.8 81 +30 +39 очень
душно
1016.7 997.9 +18.9
09 23.06 З 2 20 км 1/0
[Cc]
+28.2 +20.5 63 +35 +52 опасность
солнечного
удара
1015.5 997.1
12 23.06 СВ 1 20 км 6/6 600 м
[Cu med, cong]
+31.0 +20.0 52 +37 +45 очень
душно
1014.9 996.7
15 23.06 СВ 2 20 км 5/4 600 м
[Cu med, cong Ci fib]
+30.4 +19.2 51 +36 +39 очень
душно
1013.5 995.2
18 23.06 С 2 20 км гроза без осадков {ливн. осадки} 9/8 600 м
[Cb cap Ac cuf Ci ing]
+22.4 +19.0 81 +28 +28 душно 1015.0 996.2 +31.2 0.1
21 23.06 З 2 10 км в посл. час гроза {ливн. осадки} 10/10 600 м
[Cb cap]
+20.3 +17.7 85 +24 +24 комфорт 1016.0 997.1
00 24.06 С 2 10 км {гроза, ливн. осадки} 10/10 600 м
[Cb calv]
+19.6 +17.8 89 +23 +23 комфорт 1016.8 997.8
03 24.06 С 2 20 км 9/3 600 м
[Cb calv Ac cuf Ci fib]
+19.4 +17.7 90 +22 +22 комфорт 1016.7 997.7
06 24.06 С 2 20 км 8/0
[Ac trans Ci fib]
+23.4 +19.2 77 +30 +35 очень
душно
1017.4 998.6 +19.0 2

 

Местоположение метеостанции Фалешты (Молдова): широта 47.58 долгота 27.70 высота над уровнем моря 162 м.

В архиве по умолчанию представлена погода в Фалештах за последнюю неделю. Архивные данные за месяц целиком и за предыдущие месяцы, начиная с января 2011 года, Вы можете получить, выбрав интересующий диапазон дат из раскрывающегося списка и нажав кнопку "Ввод!".


*Определитесь, кто Вы:
робот инопланетянин человек

Внимание! Время в таблицах - всемирное. Для получения местного времени необходимо прибавить поправку, которая равна 2 ч.

Смотрите также архив погоды в соседних городах и на ближайших метеорологических станциях:

Погода в Бельцах (Молдова) (29 км)
Погода в Корнестах (Молдова) (40 км)
Погода в Штефанешты (Румыния) (45 км)
Погода в Яссы (Румыния) (46 км)
Погода в Бравичах (Молдова) (60 км)
Погода в Котнари (Румыния) (62 км)
Погода в Барнрва (Румыния) (64 км)
Погода в Кодрах (Молдова) (75 км)
Погода в Ботошани (Румыния) (80 км)
Погода в Сороках (Молдова) (82 км)

Пояснения к столбцам:

Ветер - указаны скорость ветра в м/с - средняя за 10 мин, порывы в срок и между сроками (в фигурных скобках) и направление, откуда дует ветер: С - северный, СВ - северо-восточный, В - восточный, ЮВ - юго-восточный, Ю - южный, ЮЗ - юго-западный, З - западный, СЗ - северо-западный.
Видимость - горизонтальная дальность видимости в метрах или километрах. При видимости от 1 до 10 км при отсутствии осадков обычно наблюдается дымка, при ухудшении видимости до 1 км и менее - туман. В сухую погоду видимость может ухудшаться дымом, пылью или мглою.
Явления - указаны атмосферные явления, наблюдавшиеся в срок или в последний час перед сроком; фигурными скобками обозначены явления, наблюдавшиеся между сроками (за 1-3 часа до срока); квадратными скобками обозначены град или гололедные отложения с указанием их диаметра в мм.
Облачность - указаны через наклонную черту общая и нижняя облачность в баллах и высота нижней границы облаков в метрах; квадратными скобками обозначены формы облаков: Ci - перистые, Cs - перисто-слоистые, Cc - перисто-кучевые, Ac - высококучевые, As - высокослоистые, Sc - слоисто-кучевые, Ns - слоисто-дождевые, Cu - кучевые, Cb - кучево-дождевые. Подробнее классификацию облаков см. в Атласе облаков (PDF).
T - Температура воздуха - температура, измеренная на высоте 2 м над землей.
Td - Температура точки росы - температура, при понижении до которой содержащийся в воздухе водяной пар достигнет насыщения.
f - Относительная влажность воздуха - влажноcть воздуха, измеренная на высоте 2 м над землей.
Te - Эффективная температура - температура, которую ощущает одетый по сезону человек в тени. Характеристика душности погоды. При расчете учитывается влияние влажности воздуха и скорости ветра на теплоощущения человека.
Tes - Эффективная температура на солнце - температура, которую ощущает человек, с поправкой на солнечный нагрев. Характеристика знойности погоды. Зависит от высоты солнца над горизонтом, облачности и скорости ветра. Ночью, в пасмурную погоду, а также при ветре 12 м/с и более поправка равна нулю.
P - Атмосферное давление - приведенное к уровню моря атмосферное давление.
Po - Атмосферное давление - измеренное на уровне метеостанции атмосферное давление.
Tmin - Минимальная температура - минимум температуры воздуха на высоте 2 м над землей.
Tmax - Максимальная температура - максимум температуры воздуха на высоте 2 м над землей.
R - Количество осадков - Количество выпавших осадков за период времени, мм. При наведении курсора мыши на число - период времени, за который выпало указанное количество осадков.
R24 - Количество осадков - Количество выпавших осадков за 24 часа, мм.
S - Снежный покров - Высота снежного покрова, см. При наведении курсора мыши на число - состояние снежного покрова и степень покрытия местности в баллах.